www.pogodaiklimat.ru

Погода и климат >> Архив погоды >> Гана >> Солтпонд


ПОГОДА в Солтпонде

  • Прогноз погоды в Солтпонде
  • Монитор погоды в Солтпонде

АРХИВ ПОГОДЫ в Солтпонде

Время (UTC), дата Ветер
(напр.,м/с)
 
Видим.   Явления Облачность Т
(С)
Тd
(С)
f
(%)
Тe
(С)
Тes
(С)
Комфортность P
(гПа)
Po
(гПа)
Тmin
(С)
Tmax
(С)
R
(мм)
R24
(мм)
S
(см)
21 11.07 ЮЗ 2 16 км 9/6 330 м
[Sc Cs]
+24.6 +23.5 94 +33 +33 очень
душно
1014.7 1009.2
00 12.07 ЮЗ 3 14 км 9/8 330 м
[Sc Cs]
+24.0 +23.4 96 +32 +32 очень
душно
1014.4 1008.9
03 12.07 ЮЗ 2 14 км 9/9 330 м
[Sc]
+24.3 +23.7 96 +33 +33 очень
душно
1013.2 1007.7
06 12.07 ЮЗ 1 16 км {туман} 9/5 330 м
[Sc Ac trans]
+24.0 +23.7 98 +33 +33 очень
душно
1014.6 1009.1 +23.3
09 12.07 ЮЗ 1 18 км 9/8 330 м
[Cu Sc Ac trans]
+25.5 +24.3 93 +35 +37 очень
душно
1016.2 1010.7
12 12.07 ЮЗ 1 14 км в посл. час дождь 9/3 330 м
[Cu Sc Cs]
+26.2 +24.6 91 +37 +52 опасность
солнечного
удара
1014.9 1009.5 0.0
15 12.07 ЮЗ 2 18 км 5/3 480 м
[Cu med, cong Ac trans Ci sp]
+27.0 +24.6 87 +38 +45 очень
душно
1012.5 1007.1
18 12.07 ЮЗ 2 16 км 9/8 330 м
[Sc Cs]
+25.5 +24.5 94 +36 +36 очень
душно
1013.0 1007.6 +27.5 0.0
21 12.07 ЮЗ 1 16 км 1/0
[Ci sp]
+25.0 +24.3 96 +35 +35 очень
душно
1014.5 1009.0
03 13.07 ЮЗ 3 16 км 6/0
[Ci sp]
+24.3 +23.9 98 +33 +33 очень
душно
1013.5 1008.0
09 13.07 ЮЗ 1 18 км 9/4 330 м
[Cu Sc Ac trans]
+25.7 +24.3 92 +36 +39 очень
душно
1016.5 1011.1
12 13.07 ЮЗ 2 29 км 4/3 480 м
[Cu med, cong Ac trans]
+27.5 +24.8 85 +39 +53 опасность
солнечного
удара
1015.7 1010.3
15 13.07 ЮЗ 2 20 км 3/3 480 м
[Cu med, cong]
+27.5 +24.8 85 +39 +47 очень
душно
1013.6 1008.2
18 13.07 ЮЗ 2 18 км 1/1 330 м
[Sc]
+25.7 +24.1 91 +36 +36 очень
душно
1013.0 1007.6 +28.0
21 13.07 ЮЗ 1 16 км 3/3 330 м
[Sc]
+24.6 +23.8 95 +33 +33 очень
душно
1014.9 1009.4
00 14.07 штиль 0 14 км 1/1 330 м
[Sc]
+23.6 +22.9 96 +31 +31 очень
душно
1014.9 1009.4
03 14.07 штиль 0 10 км ясно +22.7 +22.3 98 +31 +31 очень
душно
1013.7 1008.2
06 14.07 штиль 0 300 м туман 6/6 330 м
[Sc]
+21.9 +21.5 98 +28 +28 душно 1015.2 1009.7 +21.4
12 14.07 ЮЗ 2 20 км 4/4 480 м
[Cu med, cong]
+27.0 +24.3 85 +38 +50 очень
душно
1015.2 1009.8
15 14.07 ЮЗ 2 20 км 3/3 480 м
[Cu med, cong]
+27.5 +23.7 80 +38 +45 очень
душно
1012.3 1006.9
18 14.07 ЮЗ 3 18 км 1/1 330 м
[Sc]
+25.1 +24.3 95 +35 +35 очень
душно
1012.4 1007.0 +27.5
21 14.07 ЮЗ 1 16 км ясно +24.5 +23.5 94 +33 +33 очень
душно
1013.9 1008.4
00 15.07 ЮЗ 1 16 км ясно +24.0 +23.3 96 +32 +32 очень
душно
1013.5 1008.0
03 15.07 ЮЗ 1 16 км 3/1 330 м
[Sc Ci sp]
+23.5 +22.8 96 +31 +31 очень
душно
1012.7 1007.2
06 15.07 ЮЗ 1 8000 м дымка 9/9 330 м
[Sc]
+23.3 +22.9 98 +33 +33 очень
душно
1013.2 1007.7 +22.9
09 15.07 ЮЗ 2 18 км 9/1 360 м
[Cu Sc Ac trans Cs]
+25.4 +23.8 91 +35 +40 очень
душно
1014.6 1009.2
12 15.07 ЮЗ 3 18 км 9/1 420 м
[Cu med, cong Cs]
+27.6 +23.3 77 +37 +51 опасность
солнечного
удара
1013.1 1007.7
15 15.07 ЮЗ 3 18 км 9/1 480 м
[Cu med, cong Ac trans Cs]
+26.4 +23.9 86 +36 +41 очень
душно
1011.0 1005.6
18 15.07 ЮЗ 3 18 км 9/3 330 м
[Sc Ac trans Cs]
+25.5 +24.0 91 +35 +35 очень
душно
1011.2 1005.8 +27.6
21 15.07 ЮЗ 2 18 км 9/5 330 м
[Sc Ac trans]
+24.8 +24.3 97 +34 +34 очень
душно
1012.9 1007.5
00 16.07 ЮЗ 2 18 км 9/0
[Ac trans]
+24.5 +23.8 96 +33 +33 очень
душно
1012.9 1007.4
03 16.07 ЮЗ 2 18 км 9/0
[Ac trans]
+24.5 +23.8 96 +33 +33 очень
душно
1011.8 1006.4
06 16.07 ЮЗ 1 18 км 9/3 330 м
[Sc Ac trans]
+24.0 +24.0 100 +33 +33 очень
душно
1012.8 1007.3 +23.5
09 16.07 ЮЗ 1 20 км 9/9 330 м
[Sc]
+25.8 +24.4 92 +36 +37 очень
душно
1014.7 1009.3
12 16.07 ЮЗ 3 20 км 9/1 480 м
[Cu med, cong Ac trans]
+27.5 +24.4 83 +39 +46 очень
душно
1014.2 1008.8
15 16.07 ЮЗ 2 20 км 9/4 480 м
[Cb cap Ac As]
+27.5 +24.8 85 +39 +42 очень
душно
1012.0 1006.6
18 16.07 ЮЗ 2 20 км 9/4 330 м
[Sc Cs]
+26.2 +24.8 92 +37 +37 очень
душно
1012.6 1007.2 +28.5
21 16.07 ЮЗ 2 16 км 9/1 330 м
[Sc Ac trans Cs]
+25.1 +24.4 96 +35 +35 очень
душно
1014.1 1008.7
00 17.07 ЮЗ 1 14 км 9/0
[Ac trans]
+24.9 +24.4 97 +35 +35 очень
душно
1014.8 1009.3
03 17.07 ЮЗ 1 14 км 9/4 330 м
[Sc Ac trans]
+24.7 +24.2 97 +34 +34 очень
душно
1013.9 1008.4
06 17.07 ЮЗ 1 16 км 8/8 330 м
[Sc Ac trans Ci sp]
+24.5 +24.0 97 +34 +34 очень
душно
1014.7 1009.2 +23.9
09 17.07 ЮЗ 1 20 км 6/5 360 м
[Cu Sc Ac trans Ci sp]
+26.5 +24.3 88 +37 +42 очень
душно
1016.7 1011.3
12 17.07 ЮЗ 2 20 км 8/4 480 м
[Cu med, cong Ac trans Cs]
+27.4 +24.8 86 +39 +48 очень
душно
1015.6 1010.2
15 17.07 ЮЗ 2 20 км 8/3 480 м
[Cu med, cong Ac trans Cs]
+27.5 +24.8 85 +39 +44 очень
душно
1013.5 1008.1
18 17.07 ЮЗ 1 18 км 5/1 360 м
[Sc Ci sp]
+25.5 +24.1 92 +35 +35 очень
душно
1013.1 1007.7 +27.6
21 17.07 ЮЗ 1 18 км 4/4 330 м
[Sc]
+24.5 +23.8 96 +33 +33 очень
душно
1014.3 1008.8
00 18.07 ЮЗ 1 16 км 1/1 330 м
[Sc]
+24.5 +23.8 96 +33 +33 очень
душно
1014.2 1008.7
06 18.07 ЮЗ 1 18 км 9/9 330 м
[Sc]
+24.5 +23.8 96 +33 +33 очень
душно
1014.6 1009.1 +24.5
09 18.07 ЮЗ 1 18 км 9/5 330 м
[Cu Sc Ac trans]
+26.3 +24.5 90 +37 +40 очень
душно
1015.2 1009.8
12 18.07 ЮЗ 2 20 км 8/4 330 м
[Cu Sc Ac trans]
+26.3 +24.5 90 +37 +45 очень
душно
1014.9 1009.5
15 18.07 ЮЗ 2 20 км 4/3 420 м
[Cu med, cong Ac trans Ci sp]
+27.6 +25.2 87 +40 +47 очень
душно
1012.3 1006.9
18 18.07 ЮЗ 1 16 км 5/1 360 м
[Sc Ci sp]
+25.5 +24.3 93 +35 +36 очень
душно
1012.5 1007.1 +27.9

 

Местоположение метеостанции Солтпонд (Гана): широта 5.20 долгота -1.07 высота над уровнем моря 47 м.

В архиве по умолчанию представлена погода в Солтпонде за последнюю неделю. Архивные данные за месяц целиком и за предыдущие месяцы, начиная с января 2011 года, Вы можете получить, выбрав интересующий диапазон дат из раскрывающегося списка и нажав кнопку "Ввод!".


*Определитесь, кто Вы:
робот инопланетянин человек

Внимание! Время в таблицах - всемирное. Для получения местного времени необходимо прибавить поправку, которая равна 1 ч.

Смотрите также архив погоды в соседних городах и на ближайших метеорологических станциях:

Погода в Аким Ода (Гана) (82 км)
Погода Такоради (Гана) (85 км)
Погода в Аккра (Гана) (109 км)
Погода в Тема (Гана) (127 км)
Погода в Кофоридуа (Гана) (133 км)
Погода в Аксиме (Гана) (134 км)
Погода в Акюсе (Гана) (165 км)
Погода в Абетифи (Гана) (167 км)
Погода в Сефви Беквай (Гана) (178 км)
Погода в Кумаси (Гана) (179 км)

Пояснения к столбцам:

Ветер - указаны скорость ветра в м/с - средняя за 10 мин, порывы в срок и между сроками (в фигурных скобках) и направление, откуда дует ветер: С - северный, СВ - северо-восточный, В - восточный, ЮВ - юго-восточный, Ю - южный, ЮЗ - юго-западный, З - западный, СЗ - северо-западный.
Видимость - горизонтальная дальность видимости в метрах или километрах. При видимости от 1 до 10 км при отсутствии осадков обычно наблюдается дымка, при ухудшении видимости до 1 км и менее - туман. В сухую погоду видимость может ухудшаться дымом, пылью или мглою.
Явления - указаны атмосферные явления, наблюдавшиеся в срок или в последний час перед сроком; фигурными скобками обозначены явления, наблюдавшиеся между сроками (за 1-3 часа до срока); квадратными скобками обозначены град или гололедные отложения с указанием их диаметра в мм.
Облачность - указаны через наклонную черту общая и нижняя облачность в баллах и высота нижней границы облаков в метрах; квадратными скобками обозначены формы облаков: Ci - перистые, Cs - перисто-слоистые, Cc - перисто-кучевые, Ac - высококучевые, As - высокослоистые, Sc - слоисто-кучевые, Ns - слоисто-дождевые, Cu - кучевые, Cb - кучево-дождевые. Подробнее классификацию облаков см. в Атласе облаков (PDF).
T - Температура воздуха - температура, измеренная на высоте 2 м над землей.
Td - Температура точки росы - температура, при понижении до которой содержащийся в воздухе водяной пар достигнет насыщения.
f - Относительная влажность воздуха - влажноcть воздуха, измеренная на высоте 2 м над землей.
Te - Эффективная температура - температура, которую ощущает одетый по сезону человек в тени. Характеристика душности погоды. При расчете учитывается влияние влажности воздуха и скорости ветра на теплоощущения человека.
Tes - Эффективная температура на солнце - температура, которую ощущает человек, с поправкой на солнечный нагрев. Характеристика знойности погоды. Зависит от высоты солнца над горизонтом, облачности и скорости ветра. Ночью, в пасмурную погоду, а также при ветре 12 м/с и более поправка равна нулю.
P - Атмосферное давление - приведенное к уровню моря атмосферное давление.
Po - Атмосферное давление - измеренное на уровне метеостанции атмосферное давление.
Tmin - Минимальная температура - минимум температуры воздуха на высоте 2 м над землей.
Tmax - Максимальная температура - максимум температуры воздуха на высоте 2 м над землей.
R - Количество осадков - Количество выпавших осадков за период времени, мм. При наведении курсора мыши на число - период времени, за который выпало указанное количество осадков.
R24 - Количество осадков - Количество выпавших осадков за 24 часа, мм.
S - Снежный покров - Высота снежного покрова, см. При наведении курсора мыши на число - состояние снежного покрова и степень покрытия местности в баллах.